Regional Weather Roundup
Issued by NWS

Home | Current Version | Previous Version | Graphics & Text | Print | Product List | Glossary On
Versions: 1 2 3 4 5 6 7 8 9 10 11 12 13 14 15 16 17 18 19 20 21 22 23 24 25 26 27 28 29 30 31 32 33 34 35 36 37 38 39 40 41 42 43 44 45 46 47 48 49 50
000
ASUS43 KLSX 260007
RWRMO

WEATHER SUMMARY FOR MISSOURI
NATIONAL WEATHER SERVICE SPRINGFIELD MO
600 PM CST SUN JAN 25 2015

NOTE: "FAIR" INDICATES FEW OR NO CLOUDS BELOW 12,000 FEET WITH NO
       SIGNIFICANT WEATHER AND/OR OBSTRUCTIONS TO VISIBILITY.
       CURRENT SKY AND/OR WEATHER CONDITIONS ARE NOT AVAILABLE FOR
       CHILLICOTHE AND FARMINGTON.

MOZ001>031-035>038-043-044-053-054-260100-
...NORTHERN AND WESTERN MISSOURI...

CITY           SKY/WX    TMP DP  RH WIND       PRES   REMARKS
KANSAS CTY INT CLOUDY    37  31  78 N10       30.06R WCI  30
6HR MIN TEMP:  37; 6HR MAX TEMP:  38;

KANSAS C DTWN  CLOUDY    40  31  70 N13       30.06R
6HR MIN TEMP:  39; 6HR MAX TEMP:  40;

LEE`S SUMMIT   CLOUDY    38  32  79 N18       30.04R WCI  28
6HR MIN TEMP:  37; 6HR MAX TEMP:  38;

ST JOSEPH      CLOUDY    37  31  78 N12       30.09R WCI  29
6HR MIN TEMP:  37; 6HR MAX TEMP:  39;

CHILLICOTHE      N/A     35  29  78 N9        30.05R WCI  28
6HR MIN TEMP:  34; 6HR MAX TEMP:  38;

KIRKSVILLE     CLOUDY    30  28  92 N15G22    30.01R WCI  19
6HR MIN TEMP:  30; 6HR MAX TEMP:  35; 6HR PCP: TRACE;


$$
MOZ066>068-077>081-088>096-101>105-260100-
...SOUTHWEST MISSOURI...

CITY           SKY/WX    TMP DP  RH WIND       PRES   REMARKS
SPRINGFIELD    LGT RAIN  36  33  89 NW23G32   29.95R WCI  24
6HR MIN TEMP:  36; 6HR MAX TEMP:  39; 6HR PCP: TRACE;

JOPLIN         CLOUDY    41  32  70 NW20G30   30.03R
6HR MIN TEMP:  41; 6HR MAX TEMP:  42;


$$
MOZ032>034-039>042-045>050-055>058-069>072-260100-
...CENTRAL MISSOURI...

CITY           SKY/WX    TMP DP  RH WIND       PRES   REMARKS
COLUMBIA       CLOUDY    33  30  88 N18       29.95R WCI  22
6HR MIN TEMP:  33; 6HR MAX TEMP:  41; 6HR PCP:  0.05;

JEFFERSON CITY CLOUDY    35  31  85 NW20G26   29.95R WCI  24
6HR MIN TEMP:  35; 6HR MAX TEMP:  42; 6HR PCP:  0.03;

ROLLA          LGT SNOW  33  30  88 NW21      29.88R FOG     WCI  21
6HR MIN TEMP:  33; 6HR MAX TEMP:  42; 6HR PCP:  0.04;

SEDALIA        CLOUDY    35  31  85 N20       30.00R WCI  24
6HR MIN TEMP:  35; 6HR MAX TEMP:  38; 6HR PCP:  0.08;

WHITEMAN AFB   CLOUDY    36  32  87 N16G22    30.01R WCI  26
WARRENSBURG    CLOUDY    36  32  87 N9        30.02R WCI  29
OSAGE BEACH    CLOUDY    36  30  80 NW10      29.94R WCI  28

$$
MOZ051-052-059>065-260100-
...EAST CENTRAL MISSOURI...

CITY           SKY/WX    TMP DP  RH WIND       PRES   REMARKS
ST LOUIS INTL  LGT RAIN  37  33  85 N20G28    29.84R FOG     WCI  27
6HR MIN TEMP:  37; 6HR MAX TEMP:  47; 6HR PCP:  0.13;

SPIRIT OF STL  LGT RAIN  37  34  89 N12G23    29.86R WCI  29
6HR MIN TEMP:  37; 6HR MAX TEMP:  46; 6HR PCP:  0.05;

ST CHARLES     LGT SNOW  35  33  92 N21G28    29.86R FOG     WCI  24
6HR MIN TEMP:  35; 6HR MAX TEMP:  45; 6HR PCP:  0.08;


$$
MOZ072>076-082>087-097>100-106>115-260100-
...SOUTH CENTRAL AND SOUTHEAST MISSOURI...

CITY           SKY/WX    TMP DP  RH WIND       PRES   REMARKS
CAPE GIRARDEAU LGT RAIN  44  42  93 NW15      29.73R FOG
6HR MIN TEMP:  43; 6HR MAX TEMP:  47; 6HR PCP:  0.28;

FARMINGTON     CLOUDY    41  37  87 MISG      29.79R
6HR MIN TEMP:  41; 6HR MAX TEMP:  46; 6HR PCP:  0.02;

POPLAR BLUFF   CLOUDY    45  36  70 NW15      29.76R
6HR MIN TEMP:  43; 6HR MAX TEMP:  50; 6HR PCP:  0.26;

WEST PLAINS    CLOUDY    38  34  85 NW13G23   29.85R WCI  30
6HR MIN TEMP:  37; 6HR MAX TEMP:  48; 6HR PCP:  0.01;


$$


USA.gov is the U.S. government's official web portal to all federal, state and local government web resources and services.